Flag for Germany Weather past 2 weeks in Paderborn, North Rhine-Westphalia, Germany

Now
64 °F

Partly sunny.


Feels Like: 64 °F
Forecast: 60 / 74 °F
Wind: 6 mph from Southeast

Location: Paderborn / Lippstadt

Current Time: Sep 18, 2014 at 6:14:33 PM

Latest Report: Sep 18, 2014 at 5:50 PM


Visibility: N/A

Pressure: 29.89 "Hg

Humidity: 100%

Dew point: 64 °F

Location of PaderbornLocation

Historic Weather in Paderborn — Graph

°F

Paderborn temperature yesterday

Maximum temperature yesterday: 73 °F (at 4:20 PM)
Minimum temperature yesterday: 55 °F (at 5:20 AM)
Average temperature yesterday: 64 °F

Past Weeks' High & Low Weather Summary

 TemperatureHumidityPressure
High75 °F (Sep 6, 2:20 PM)100% (Sep 4, 5:20 AM)30.24 "Hg (Sep 4, 5:20 AM)
Low45 °F (Sep 12, 3:50 AM)50% (Sep 17, 4:20 PM)29.89 "Hg (Sep 6, 3:20 PM)
Average60 °F83%30.06 "Hg
* Reported Sep 3 5:20 PM — Sep 18 5:20 PM, Paderborn, Weather by CustomWeather, © 2014

Note: Actual official high and low records may vary slightly from our data, if they occured in-between our weather recording intervals... More about our weather records

Advertising

Paderborn weather history for previous 24 hours

 ConditionsComfort  
Time TempWeatherWind HumidityBarometerVisibility
5:20 PM
Sep 18
66 °FScattered showers. Partly sunny.2 mph88%29.92 "HgN/A
4:50 PM66 °FSprinkles. Partly sunny.2 mph83%29.92 "HgN/A
4:20 PM68 °FScattered showers. Partly sunny.5 mph78%29.89 "HgN/A
3:50 PM70 °FScattered showers. Scattered clouds.3 mph64%29.89 "HgN/A
3:20 PM70 °FSunny.5 mph64%29.89 "Hg10 mi
2:50 PM72 °FPassing clouds.5 mph61%29.89 "HgN/A
2:20 PM70 °FPassing clouds.7 mph64%29.89 "HgN/A
1:50 PM72 °FSunny.9 mph61%29.89 "Hg10 mi
1:20 PM70 °FSunny.6 mph64%29.89 "Hg10 mi
12:50 PM72 °FPassing clouds.7 mph61%29.89 "HgN/A
12:20 PM72 °FSunny.8 mph61%29.89 "Hg10 mi
11:50 AM72 °FPassing clouds.7 mph61%29.89 "HgN/A
11:20 AM72 °FSunny.7 mph61%29.89 "Hg10 mi
10:50 AM70 °FPassing clouds.7 mph60%29.89 "HgN/A
10:20 AM68 °FSunny.9 mph69%29.89 "Hg10 mi
9:50 AM66 °FSunny.7 mph73%29.89 "Hg10 mi
9:20 AM63 °FSunny.7 mph83%29.89 "Hg10 mi
8:50 AM61 °FSunny.8 mph88%29.89 "Hg10 mi
8:20 AM59 °FSunny.6 mph94%29.89 "Hg10 mi
7:50 AM55 °FClear.8 mph100%29.89 "Hg10 mi
7:20 AM55 °FClear.8 mph100%29.89 "Hg10 mi
6:50 AM54 °FClear.8 mph100%29.89 "Hg10 mi
6:20 AM55 °FClear.8 mph94%29.89 "Hg10 mi
5:50 AM54 °FClear.8 mph100%29.89 "Hg10 mi
5:20 AM55 °FClear.8 mph94%29.89 "Hg10 mi
4:50 AM55 °FClear.8 mph94%29.89 "Hg10 mi
4:20 AM55 °FClear.8 mph100%29.89 "Hg10 mi
3:50 AM55 °FClear.8 mph94%29.89 "Hg10 mi
3:20 AM55 °FClear.7 mph100%29.89 "Hg10 mi
12:20 AM61 °FClear.3 mph83%29.92 "Hg10 mi
11:50 PM
Sep 17
63 °FPassing clouds.5 mph83%29.92 "HgN/A
11:20 PM61 °FClear.3 mph88%29.92 "Hg10 mi
10:50 PM61 °FClear.5 mph83%29.92 "Hg10 mi
10:20 PM63 °FClear.3 mph77%29.92 "Hg10 mi
9:50 PM63 °FPassing clouds.5 mph77%29.92 "HgN/A
9:20 PM63 °FClear.5 mph77%29.92 "Hg10 mi
8:50 PM64 °FClear.5 mph73%29.92 "Hg10 mi
8:20 PM64 °FSunny.3 mph73%29.92 "Hg10 mi
7:50 PM68 °FSunny.5 mph64%29.92 "Hg10 mi
7:20 PM68 °FSunny.6 mph64%29.92 "Hg10 mi
6:50 PM72 °FSunny.5 mph53%29.92 "Hg10 mi
6:20 PM72 °FPassing clouds.8 mph53%29.92 "HgN/A
Weather by CustomWeather, © 2014

See weather overviewHow to use our weather pages